HAKUTO-R (62717 NORAD) Tracking and Keplerian Element Data

This shows tracking and keplerian element data for the satellite.

Feedback or suggestion? Click here.




ElementValue
Catalog62717
NameHAKUTO-R
Epoch Orbit0
Epoch Day15.3179673
Epoch Year2025
RAAN0.1839
Inclination35.17
Eccentricity0.96509
Argument of Perigee345.57
Mean Anonmoly0.723
Mean Motion0.10673359
Decay Rate-0.00038243
L11 62717U 25010B 25015.31796730 -.00038243 31373-4 00000+0 0 9991
L22 62717 35.1700 0.1839 9650900 345.5700 0.7230 0.10673359 01



Live tracking and technical data element details for HAKUTO-R (NORAD 62717). HAKUTO-R can be tracked NOW for your location showing map with azimuth and elevation plus other details from your city location.







IsCatalogInMostPopularTable: catalog: 62717, numindb: 271
Update: records affected: 1



GetName: 62717 HAKUTO-R

Hit Count: updated at: Sat, 07 Mar 2026 03:59:05 GMT